Location: ???? ?????
(37.9132°N, 22.9869°E)
Time: 17:17:14
(UTC+00:00)

Cosmos 2360 Rocket - Pass Details

Date: 04 August 2024
Orbit: 834 x 843 km, 71.0° (Epoch: 19 September)

Event Time Altitude Azimuth Distance (km) Brightness Sun altitude
Exits shadow 23:04:48 19° 74° (ENE) 1,917 4.2 -34.7°
Drops below altitude 10° 23:07:11 10° 52° (NE) 2,465 5.1 -34.6°
Sets 23:10:08 0° 38° (NE) 3,403 6.2 -34.5°
